Home   Weather   Lancy   Past weeks

Flag for Switzerland Past Weather in Lancy, Geneva, Switzerland — Yesterday and Last 2 Weeks

Now
32 °F

Ice fog.


Feels Like: 29 °F
Forecast: 27 / 50 °F
Wind: 3 mph from West

Location: Geneva Cointrin Airport

Current Time: Dec 8, 2016 at 10:58:08 am

Latest Report: Dec 8, 2016 at 10:20 am


Visibility: 1 mi

Pressure: 30.63 "Hg

Humidity: 100%

Dew Point: 32 °F

Location of LancyLocation

Past Weather in Lancy — Graph

°F

Lancy Temperature Yesterday

Maximum temperature yesterday: 37 °F (at 12:50 pm)
Minimum temperature yesterday: 30 °F (at 7:20 pm)
Average temperature yesterday: 34 °F

High & Low Weather Summary for the Past Weeks

 TemperatureHumidityPressure
High52 °F (Nov 24, 1:20 pm)100% (Nov 23, 9:20 am)30.63 "Hg (Nov 23, 9:20 am)
Low25 °F (Nov 30, 5:50 am)56% (Nov 28, 7:20 pm)29.80 "Hg (Nov 25, 1:20 am)
Average39 °F87%30.21 "Hg
* Reported Nov 23 9:20 am — Dec 8 9:50 am, Lancy, Weather by CustomWeather, © 2016

Note: Actual official high and low records may vary slightly from our data, if they occured in-between our weather recording intervals... More about our weather records

Advertising

Lancy Weather History for the Previous 24 Hours

Scroll right to see more
 ConditionsComfort  
Time TempWeatherWind HumidityBarometerVisibility
9:50 am
Thu, Dec 8
32 °FIce fog.5 mph100%30.63 "Hg2 mi
9:20 am32 °FIce fog.2 mph100%30.63 "Hg2 mi
8:50 am32 °FIce fog.2 mph93%30.63 "Hg2 mi
8:20 am32 °FIce fog.2 mph93%30.63 "Hg2 mi
7:50 am32 °FIce fog.3 mph93%30.63 "Hg2 mi
7:20 am32 °FIce fog.2 mph93%30.63 "Hg2 mi
6:50 am30 °FIce fog.1 mph100%30.63 "Hg2 mi
6:20 am32 °FIce fog.2 mph100%30.63 "Hg1 mi
5:50 am32 °FIce fog.2 mph100%30.60 "Hg1 mi
5:20 am32 °FIce fog.2 mph100%30.60 "Hg1 mi
4:50 am32 °FIce fog.3 mph100%30.60 "Hg1 mi
4:20 am32 °FIce fog.5 mph100%30.60 "Hg1 mi
3:20 am32 °FIce fog.2 mph100%30.60 "Hg1 mi
2:20 am34 °FFog.5 mph100%30.60 "Hg1 mi
1:50 am32 °FIce fog.3 mph100%30.60 "Hg1 mi
1:20 am32 °FIce fog.2 mph100%30.60 "Hg1 mi
12:50 am32 °FIce fog.1 mph100%30.60 "Hg1 mi
12:20 am32 °FIce fog.1 mph100%30.60 "Hg1 mi
11:50 pm
Wed, Dec 7
32 °FIce fog.2 mph100%30.60 "Hg1 mi
11:20 pm32 °FIce fog.2 mph100%30.60 "Hg1 mi
10:50 pm32 °FIce fog.2 mph100%30.60 "Hg1 mi
10:20 pm32 °FIce fog.2 mph100%30.60 "Hg0 mi
9:50 pm32 °FIce fog.2 mph100%30.60 "Hg0 mi
9:20 pm32 °FIce fog.2 mph100%30.60 "Hg0 mi
8:50 pm32 °FIce fog.1 mph100%30.60 "Hg0 mi
8:20 pm32 °FPartly cloudy.1 mph100%30.60 "Hg1 mi
7:50 pm30 °FPassing clouds.1 mph100%30.60 "Hg0 mi
7:20 pm30 °FClear.1 mph100%30.57 "Hg4 mi
6:50 pm32 °FClear.1 mph93%30.57 "Hg4 mi
6:20 pm32 °FClear.2 mph100%30.57 "Hg4 mi
5:50 pm32 °FIce fog.2 mph100%30.57 "Hg3 mi
5:20 pm34 °FFog.2 mph93%30.54 "Hg2 mi
4:50 pm34 °FFog.3 mph93%30.54 "Hg3 mi
4:20 pm36 °FFog.5 mph87%30.54 "Hg3 mi
3:20 pm37 °FFog.6 mph87%30.54 "Hg3 mi
2:50 pm37 °FScattered clouds.3 mph87%30.51 "Hg5 mi
2:20 pm37 °FScattered clouds.2 mph87%30.51 "Hg5 mi
1:50 pm37 °FPartly sunny.2 mph87%30.51 "Hg5 mi
1:20 pm37 °FPartly sunny.2 mph81%30.51 "Hg5 mi
12:50 pm37 °FPartly sunny.2 mph87%30.54 "Hg4 mi
12:20 pm36 °FLow clouds.3 mph93%30.54 "Hg4 mi
11:50 am36 °FLow clouds.3 mph93%30.54 "Hg4 mi
11:20 am36 °FLow clouds.3 mph93%30.54 "Hg4 mi
10:50 am36 °FLow clouds.2 mph93%30.54 "Hg4 mi
10:20 am34 °FLow clouds.3 mph93%30.54 "Hg4 mi
Weather by CustomWeather, © 2016

See weather overviewHow to use our weather pages